Weather History for KLEE - March, 2013

Change the Weather History Date:

Saturday, March 16, 2013

  Actual Average Record
Temperature  
Mean Temperature 62 °F -  
Max Temperature 80 °F 76 °F 87 °F (1973)
Min Temperature 46 °F 54 °F 31 °F (1993)
Degree Days  
Heating Degree Days 2    
Growing Degree Days 12 (Base 50)    
Moisture  
Dew Point 44 °F    
Average Humidity 57    
Maximum Humidity 93    
Minimum Humidity 24    
Precipitation  
Precipitation 0.00 in - - ()
Sea Level Pressure  
Sea Level Pressure 30.15 in    
Wind  
Wind Speed 4 mph (WSW)    
Max Wind Speed 10 mph    
Max Gust Speed 16 mph    
Visibility 10 miles    
Events      
Averages and records for this station are not official NWS values.
T = Trace of Precipitation, MM = Missing Value Source: NWS Daily Summary

Daily Weather History Graph

Daily Weather History Graph

Search for Another Location

Airport or City:

Trip Planner

Search our weather history database for the weather conditions in past years. The results will help you decide how hot, cold, wet, or windy it might be!

Date:

Astronomy

Mar. 16, 2013 Rise Set
Actual Time 7:35 AM EDT 7:36 PM EDT
Civil Twilight 7:11 AM EDT 8:00 PM EDT
Nautical Twilight 6:44 AM EDT 8:27 PM EDT
Astronomical Twilight 6:16 AM EDT 8:55 PM EDT
Moon 10:28 AM EDT (3/16) No Moon Set
Length of Visible Light 12h 48m
Length of Day
12h 00m
Waxing Crescent, 23% of the Moon is Illuminated
Mar 16
Waxing Crescent
Mar 19
First Quarter
Mar 27
Full
Apr 3
Last Quarter
Apr 10
New

Hourly Weather History & Observations

Time (EDT) Temp. Windchill Dew Point Humidity Pressure Visibility Wind Dir Wind Speed Gust Speed Precip Events Conditions
12:53 AM 51.1 °F - 46.0 °F 83% 30.20 in 10.0 mi Calm Calm - N/A   Clear
1:53 AM 48.9 °F - 44.1 °F 83% 30.19 in 10.0 mi Calm Calm - N/A   Clear
2:53 AM 48.0 °F - 45.0 °F 89% 30.19 in 10.0 mi Calm Calm - N/A   Clear
3:53 AM 46.0 °F 44.8 °F 43.0 °F 89% 30.17 in 10.0 mi SW 3.5 mph - N/A   Clear
4:53 AM 48.0 °F - 45.0 °F 89% 30.16 in 10.0 mi Calm Calm - N/A   Clear
5:53 AM 50.0 °F - 48.0 °F 93% 30.16 in 9.0 mi SW 3.5 mph - N/A   Clear
6:53 AM 50.0 °F - 48.0 °F 93% 30.17 in 9.0 mi SSW 4.6 mph - N/A   Clear
7:53 AM 50.0 °F - 48.0 °F 93% 30.19 in 9.0 mi SW 4.6 mph - N/A   Clear
8:53 AM 54.0 °F - 50.0 °F 86% 30.20 in 10.0 mi SSW 4.6 mph - N/A   Clear
9:53 AM 59.0 °F - 50.0 °F 72% 30.19 in 10.0 mi South 10.4 mph - N/A   Clear
10:53 AM 66.0 °F - 48.0 °F 52% 30.20 in 10.0 mi WSW 3.5 mph - N/A   Clear
11:34 AM 69.8 °F - 44.6 °F 40% 30.19 in 10.0 mi SSW 5.8 mph - N/A   Clear
11:53 AM 71.1 °F - 43.0 °F 36% 30.19 in 10.0 mi SW 5.8 mph - N/A   Clear
12:53 PM 73.9 °F - 42.1 °F 32% 30.17 in 10.0 mi WSW 8.1 mph - N/A   Clear
1:53 PM 77.0 °F - 41.0 °F 28% 30.14 in 10.0 mi West 8.1 mph - N/A   Clear
2:53 PM 78.1 °F - 39.9 °F 25% 30.11 in 10.0 mi West 10.4 mph 16.1 mph N/A   Clear
3:53 PM 79.0 °F - 39.0 °F 24% 30.08 in 10.0 mi West 8.1 mph - N/A   Clear
4:53 PM 79.0 °F - 41.0 °F 26% 30.06 in 10.0 mi West 8.1 mph - N/A   Clear
5:53 PM 77.0 °F - 39.9 °F 26% 30.06 in 10.0 mi WNW 10.4 mph - N/A   Clear
6:53 PM 73.9 °F - 39.9 °F 29% 30.07 in 10.0 mi WNW 9.2 mph - N/A   Clear
7:53 PM 68.0 °F - 41.0 °F 37% 30.09 in 10.0 mi WNW 6.9 mph - N/A   Clear
8:53 PM 64.9 °F - 39.9 °F 40% 30.09 in 10.0 mi WNW 5.8 mph - N/A   Clear
9:53 PM 63.0 °F - 39.0 °F 41% 30.12 in 10.0 mi WSW 4.6 mph - N/A   Clear
10:53 PM 57.9 °F - 41.0 °F 53% 30.13 in 10.0 mi Calm Calm - N/A   Clear
11:53 PM 57.0 °F - 43.0 °F 59% 30.13 in 10.0 mi WNW 3.5 mph - N/A   Clear